Warsaw, Poland

12:25 AM CET on November 25, 2017 (GMT +0100)
Okecie

Weather History for EPWA - August, 2014

Change the Weather History Date:

Sunday, August 31, 2014

  Actual Average Record
Temperature  
Mean Temperature 66 °F -  
Max Temperature 74 °F 65 °F 94 °F (2015)
Min Temperature 57 °F 48 °F 42 °F (2008)
Growing Degree Days 16 (Base 50)    
Moisture  
Dew Point 57 °F    
Average Humidity 76    
Maximum Humidity 100    
Minimum Humidity 40    
Precipitation  
Precipitation 0.00 in 0.06 in - ()
Sea Level Pressure  
Sea Level Pressure 29.95 in    
Wind  
Wind Speed 2 mph ()    
Max Wind Speed 9 mph    
Max Gust Speed -    
Visibility 8.8 miles    
Events Fog , Rain    
Averages and records for this station are not official NWS values.
T = Trace of Precipitation, MM = Missing Value Source: Averaged Metar Reports

Daily Weather History Graph

Daily Weather History Graph

Search for Another Location

Airport or City:

Trip Planner

Search our weather history database for the weather conditions in past years. The results will help you decide how hot, cold, wet, or windy it might be!

Date:

Astronomy

Aug. 31, 2014 Rise Set
Actual Time 5:45 AM CEST 7:26 PM CEST
Civil Twilight 5:09 AM CEST 8:01 PM CEST
Nautical Twilight 4:25 AM CEST 8:45 PM CEST
Astronomical Twilight 3:36 AM CEST 9:34 PM CEST
Moon 11:58 AM CEST (8/31) 9:42 PM CEST (8/31)
Length of Visible Light 14h 51m
Length of Day
13h 40m
Waxing Crescent, 29% of the Moon is Illuminated
Aug 31
Waxing Crescent
Sep 2
First Quarter
Sep 9
Full
Sep 16
Last Quarter
Sep 24
New

Hourly Weather History & Observations

Time (CEST) Temp. Dew Point Humidity Pressure Visibility Wind Dir Wind Speed Gust Speed Precip Events Conditions
12:00 AM 60 °F 57 °F 87% 30.02 in 12 mi Calm Calm - -   Mostly Cloudy
12:00 AM 60.8 °F 57.2 °F 88% 30.01 in - Variable 1.2 mph - N/A   Clear
12:30 AM 59.0 °F 57.2 °F 94% 30.01 in - NW 4.6 mph - N/A   Clear
1:00 AM 60 °F 57 °F 87% 30.02 in 12 mi Calm Calm - -   Mostly Cloudy
1:00 AM 59.0 °F 57.2 °F 94% 30.01 in - Variable 2.3 mph - N/A   Clear
1:30 AM 59.0 °F 57.2 °F 94% 30.01 in - Variable 1.2 mph - N/A   Clear
2:00 AM 60 °F 58 °F 90% 30.02 in 9 mi Calm Calm - -   Mostly Cloudy
2:00 AM 59.0 °F 57.2 °F 94% 30.01 in - South 2.3 mph - N/A   Clear
2:30 AM 59.0 °F 57.2 °F 94% 30.01 in - South 2.3 mph - N/A   Clear
3:00 AM 59 °F 57 °F 90% 30.01 in 6 mi Calm Calm - -   Mostly Cloudy
3:00 AM 59.0 °F 57.2 °F 94% 30.01 in - Variable 1.2 mph - N/A   Clear
3:30 AM 59.0 °F 57.2 °F 94% 30.01 in - South 2.3 mph - N/A   Clear
4:00 AM 59 °F 57 °F 92% 30.01 in 6 mi Calm Calm - -   Mostly Cloudy
4:00 AM 57.2 °F 57.2 °F 100% 30.01 in - SW 1.2 mph - N/A   Clear
4:30 AM 57.2 °F 57.2 °F 100% 29.98 in - South 1.2 mph - N/A   Clear
5:00 AM 58 °F 57 °F 95% 30.00 in 6 mi Calm Calm - -   Mostly Cloudy
5:00 AM 57.2 °F 57.2 °F 100% 29.98 in - South 2.3 mph - N/A   Clear
5:30 AM 59.0 °F 57.2 °F 94% 29.98 in - South 3.5 mph - N/A   Clear
6:00 AM 58 °F 57 °F 94% 30.00 in 6 mi Calm Calm - - Fog Patches of Fog
6:00 AM 57.2 °F 57.2 °F 100% 29.98 in 6.2 mi SSW 1.2 mph - N/A Fog Shallow Fog
6:30 AM 57.2 °F 57.2 °F 100% 29.98 in 5.0 mi South 2.3 mph - N/A Fog Fog
7:00 AM 59 °F 58 °F 97% 30.00 in 5 mi Calm Calm - -   Mist
7:00 AM 59.0 °F 59.0 °F 100% 29.98 in 5.0 mi Calm Calm - N/A   Unknown
7:30 AM 59.0 °F 59.0 °F 100% 29.98 in - Calm Calm - N/A   Clear
8:00 AM 62 °F 60 °F 89% 29.99 in 6 mi Calm Calm - -   Mostly Cloudy
8:00 AM 60.8 °F 59.0 °F 94% 29.98 in - Calm Calm - N/A   Clear
8:30 AM 62.6 °F 59.0 °F 88% 29.98 in - Variable 1.2 mph - N/A   Clear
9:00 AM 66 °F 60 °F 77% 29.99 in 9 mi Calm Calm - -   Mostly Cloudy
9:00 AM 66.2 °F 60.8 °F 83% 29.98 in - Variable 1.2 mph - N/A   Clear
9:30 AM 66.2 °F 60.8 °F 83% 29.98 in 6.2 mi Variable 1.2 mph - N/A   Partly Cloudy
10:00 AM 67 °F 60 °F 71% 29.98 in 9 mi Calm Calm - - Rain Light Rain Showers
10:00 AM 66.2 °F 59.0 °F 78% 29.98 in 6.2 mi Variable 2.3 mph - N/A   Scattered Clouds
10:30 AM 66.2 °F 60.8 °F 83% 29.98 in 6.2 mi WNW 3.5 mph - N/A   Scattered Clouds
11:00 AM 69 °F 58 °F 60% 29.98 in 12 mi Calm Calm - -   Partly Cloudy
11:00 AM 69.8 °F 59.0 °F 68% 29.98 in 6.2 mi Variable 2.3 mph - N/A   Scattered Clouds
11:30 AM 69.8 °F 57.2 °F 64% 29.95 in 6.2 mi Variable 2.3 mph - N/A   Scattered Clouds
12:00 PM 71 °F 56 °F 49% 29.96 in 12 mi Calm Calm - -   Partly Cloudy
12:00 PM 69.8 °F 57.2 °F 64% 29.95 in 6.2 mi Variable 2.3 mph - N/A   Scattered Clouds
12:30 PM 71.6 °F 55.4 °F 57% 29.95 in 6.2 mi Variable 2.3 mph - N/A   Partly Cloudy
1:00 PM 72 °F 54 °F 44% 29.95 in 12 mi South 2.2 mph - -   Scattered Clouds
1:00 PM 71.6 °F 55.4 °F 57% 29.95 in 6.2 mi Variable 2.3 mph - N/A   Partly Cloudy
1:30 PM 73.4 °F 57.2 °F 57% 29.95 in 6.2 mi Variable 2.3 mph - N/A   Scattered Clouds
2:00 PM 73 °F 55 °F 43% 29.94 in 12 mi SSW 2.2 mph - -   Partly Cloudy
2:00 PM 73.4 °F 57.2 °F 57% 29.92 in 6.2 mi Variable 2.3 mph - N/A   Scattered Clouds
2:30 PM 71.6 °F 57.2 °F 60% 29.92 in 6.2 mi SSE 5.8 mph - N/A   Scattered Clouds
3:00 PM 74 °F 54 °F 40% 29.92 in 12 mi SSE 2.2 mph - -   Partly Cloudy
3:00 PM 73.4 °F 55.4 °F 53% 29.92 in 6.2 mi Variable 2.3 mph - N/A   Scattered Clouds
3:30 PM 73.4 °F 57.2 °F 57% 29.92 in 6.2 mi Variable 2.3 mph - N/A   Scattered Clouds
4:00 PM 73 °F 55 °F 43% 29.91 in 12 mi SE 4.5 mph - -   Partly Cloudy
4:00 PM 73.4 °F 57.2 °F 57% 29.92 in 6.2 mi South 6.9 mph - N/A   Scattered Clouds
4:30 PM 71.6 °F 55.4 °F 57% 29.92 in 6.2 mi SE 6.9 mph - N/A   Scattered Clouds
5:00 PM 72 °F 56 °F 48% 29.90 in 12 mi SE 4.5 mph - -   Scattered Clouds
5:00 PM 71.6 °F 57.2 °F 60% 29.89 in 6.2 mi SE 4.6 mph - N/A   Partly Cloudy
5:30 PM 71.6 °F 55.4 °F 57% 29.89 in 6.2 mi East 5.8 mph - N/A   Partly Cloudy
6:00 PM 70 °F 57 °F 53% 29.89 in 19 mi East 4.5 mph - -   Scattered Clouds
6:00 PM 69.8 °F 57.2 °F 64% 29.89 in - East 5.8 mph - N/A   Clear
6:30 PM 69.8 °F 59.0 °F 68% 29.89 in - Variable 2.3 mph - N/A   Clear
7:00 PM 68 °F 57 °F 58% 29.89 in 19 mi East 4.5 mph - -   Scattered Clouds
7:00 PM 68.0 °F 57.2 °F 68% 29.89 in - ENE 4.6 mph - N/A   Clear
7:30 PM 68.0 °F 57.2 °F 68% 29.89 in 6.2 mi East 4.6 mph - N/A   Partly Cloudy
8:00 PM 66 °F 57 °F 65% 29.89 in 19 mi East 6.7 mph - -   Scattered Clouds
8:00 PM 64.4 °F 57.2 °F 77% 29.89 in 6.2 mi ENE 5.8 mph - N/A   Partly Cloudy
8:30 PM 64.4 °F 57.2 °F 77% 29.89 in - East 4.6 mph - N/A   Clear
9:00 PM 64 °F 58 °F 74% 29.89 in 19 mi East 6.7 mph - -   Scattered Clouds
9:00 PM 64.4 °F 59.0 °F 83% 29.89 in - East 6.9 mph - N/A   Clear
9:30 PM 64.4 °F 59.0 °F 83% 29.89 in - East 6.9 mph - N/A   Clear
10:00 PM 64 °F 58 °F 74% 29.89 in 19 mi East 6.7 mph - -   Clear
10:00 PM 64.4 °F 59.0 °F 83% 29.89 in - East 6.9 mph - N/A   Clear
10:30 PM 62.6 °F 59.0 °F 88% 29.89 in - East 6.9 mph - N/A   Clear
11:00 PM 63 °F 58 °F 78% 29.89 in 12 mi East 6.7 mph - -   Partly Cloudy
11:00 PM 62.6 °F 59.0 °F 88% 29.89 in 6.2 mi East 5.8 mph - N/A   Scattered Clouds
11:30 PM 64.4 °F 57.2 °F 77% 29.89 in 6.2 mi East 9.2 mph - N/A   Mostly Cloudy